Weather History for KAMN - December, 2013

Change the Weather History Date:

Thursday, December 12, 2013

  Actual Average Record
Temperature  
Mean Temperature 12 °F -  
Max Temperature 22 °F 34 °F 60 °F (1949)
Min Temperature 3 °F 20 °F -3 °F (1958)
Degree Days  
Heating Degree Days 52    
Moisture  
Dew Point 10 °F    
Average Humidity 88    
Maximum Humidity 92    
Minimum Humidity 79    
Precipitation  
Precipitation 0.00 in - - ()
Sea Level Pressure  
Sea Level Pressure 30.25 in    
Wind  
Wind Speed 7 mph (SW)    
Max Wind Speed 16 mph    
Max Gust Speed 24 mph    
Visibility 6 miles    
Events Snow    
Averages and records for this station are not official NWS values.
T = Trace of Precipitation, MM = Missing Value Source: NWS Daily Summary

Daily Weather History Graph

Daily Weather History Graph

Search for Another Location

Airport or City:

Trip Planner

Search our weather history database for the weather conditions in past years. The results will help you decide how hot, cold, wet, or windy it might be!

Date:

Astronomy

Dec. 12, 2013 Rise Set
Actual Time 8:02 AM EST 5:03 PM EST
Civil Twilight 7:29 AM EST 5:35 PM EST
Nautical Twilight 6:53 AM EST 6:11 PM EST
Astronomical Twilight 6:18 AM EST 6:46 PM EST
Moon 2:15 PM EST (12/12) 3:17 AM EST (12/12)
Length of Visible Light 10h 06m
Length of Day
9h 01m
Waxing Gibbous, 80% of the Moon is Illuminated
Dec 12
Waxing Gibbous
Dec 17
Full
Dec 25
Last Quarter
Jan 1
New
Jan 7
First Quarter

Hourly Weather History & Observations

Time (EST) Temp. Windchill Dew Point Humidity Pressure Visibility Wind Dir Wind Speed Gust Speed Precip Events Conditions
12:11 AM 7.7 °F -0.9 °F 4.8 °F 88% 30.41 in 7.0 mi WSW 4.6 mph - N/A   Overcast
12:31 AM 8.2 °F 1.6 °F 5.0 °F 87% 30.41 in 10.0 mi WSW 3.5 mph - N/A   Overcast
12:51 AM 8.4 °F -1.6 °F 4.1 °F 83% 30.40 in 10.0 mi West 5.8 mph - N/A   Overcast
1:12 AM 7.7 °F 1.0 °F 2.5 °F 79% 30.39 in 10.0 mi WSW 3.5 mph - N/A   Overcast
1:32 AM 6.3 °F -0.7 °F 1.8 °F 82% 30.38 in 10.0 mi SW 3.5 mph - N/A   Scattered Clouds
1:52 AM 3.7 °F -3.6 °F -0.2 °F 84% 30.38 in 10.0 mi SSW 3.5 mph - N/A   Clear
2:12 AM 3.9 °F -5.3 °F 1.2 °F 89% 30.38 in 10.0 mi SW 4.6 mph - N/A   Clear
2:27 AM 4.6 °F -7.4 °F 1.9 °F 89% 30.38 in 10.0 mi SW 6.9 mph - N/A   Clear
2:49 AM 5.0 °F -5.6 °F 2.7 °F 90% 30.39 in 10.0 mi SW 5.8 mph - N/A   Clear
3:09 AM 4.8 °F -4.3 °F 2.5 °F 90% 30.39 in 10.0 mi SW 4.6 mph - N/A   Clear
3:30 AM 4.8 °F -4.3 °F 2.8 °F 92% 30.38 in 10.0 mi SSW 4.6 mph - N/A   Mostly Cloudy
3:50 AM 5.4 °F -1.7 °F 3.2 °F 91% 30.38 in 7.0 mi SW 3.5 mph - N/A Snow Light Snow
4:10 AM 5.7 °F -1.3 °F 3.6 °F 91% 30.37 in 10.0 mi SW 3.5 mph - N/A   Overcast
4:30 AM 6.8 °F -2.0 °F 4.5 °F 90% 30.36 in 7.0 mi SSW 4.6 mph - N/A   Overcast
4:50 AM 7.0 °F -1.7 °F 4.6 °F 90% 30.36 in 7.0 mi SSW 4.6 mph - N/A Snow Light Snow
5:10 AM 7.7 °F -0.9 °F 5.5 °F 91% 30.36 in 4.0 mi SSW 4.6 mph - N/A Snow Light Snow
5:32 AM 8.4 °F -0.1 °F 5.9 °F 89% 30.35 in 2.0 mi SSW 4.6 mph - N/A Snow Light Snow
5:53 AM 7.7 °F 1.0 °F 5.4 °F 90% 30.35 in 2.0 mi South 3.5 mph - N/A Snow Light Snow
6:13 AM 7.2 °F -1.5 °F 4.8 °F 90% 30.35 in 2.5 mi South 4.6 mph - N/A Snow Light Snow
6:33 AM 7.2 °F -3.0 °F 5.0 °F 91% 30.34 in 4.0 mi SSW 5.8 mph - N/A Snow Light Snow
6:53 AM 8.6 °F -1.3 °F 6.4 °F 91% 30.34 in 7.0 mi South 5.8 mph - N/A Snow Light Snow
7:13 AM 8.6 °F 0.1 °F 6.6 °F 92% 30.33 in 5.0 mi South 4.6 mph - N/A Snow Light Snow
7:33 AM 9.3 °F -0.5 °F 7.3 °F 92% 30.33 in 7.0 mi South 5.8 mph - N/A Snow Light Snow
7:53 AM 10.0 °F 0.4 °F 7.7 °F 90% 30.32 in 7.0 mi South 5.8 mph - N/A Snow Light Snow
8:10 AM 10.4 °F -0.4 °F 8.1 °F 90% 30.31 in 5.0 mi South 6.9 mph - N/A Snow Light Snow
8:30 AM 11.1 °F 0.4 °F 8.6 °F 90% 30.30 in 5.0 mi SSW 6.9 mph - N/A Snow Light Snow
8:51 AM 11.7 °F 0.0 °F 8.6 °F 88% 30.30 in 7.0 mi SSW 8.1 mph - N/A   Overcast
9:11 AM 12.2 °F -1.8 °F 8.6 °F 85% 30.29 in 5.0 mi SW 11.5 mph - N/A Snow Light Snow
9:31 AM 12.7 °F -1.1 °F 9.3 °F 86% 30.29 in 7.0 mi SW 11.5 mph 16.1 mph N/A   Overcast
9:51 AM 13.6 °F 1.6 °F 9.9 °F 85% 30.28 in 5.0 mi SSW 9.2 mph - N/A   Overcast
10:11 AM 14.0 °F 0.5 °F 10.4 °F 86% 30.27 in 4.0 mi SSW 11.5 mph - N/A Snow Light Snow
10:31 AM 14.7 °F 2.1 °F 11.3 °F 86% 30.26 in 2.5 mi SSW 10.4 mph - N/A Snow Light Snow
10:51 AM 15.6 °F 3.2 °F 12.0 °F 86% 30.26 in 2.5 mi SSW 10.4 mph - N/A Snow Light Snow
11:13 AM 16.5 °F 3.0 °F 12.6 °F 84% 30.26 in 5.0 mi SSW 12.7 mph - N/A   Overcast
11:34 AM 17.2 °F 3.9 °F 13.1 °F 84% 30.23 in 2.0 mi SSW 12.7 mph 17.3 mph N/A Snow Light Snow
11:54 AM 17.6 °F 5.0 °F 13.3 °F 83% 30.23 in 3.0 mi SSW 11.5 mph 17.3 mph N/A Snow Light Snow
12:14 PM 18.0 °F 5.4 °F 12.9 °F 81% 30.21 in 3.0 mi SW 11.5 mph 19.6 mph N/A Snow Light Snow
12:34 PM 17.6 °F 5.0 °F 13.3 °F 83% 30.20 in 3.0 mi SSW 11.5 mph - N/A Snow Light Snow
12:49 PM 18.1 °F 7.1 °F 13.8 °F 83% 30.19 in 3.0 mi SSW 9.2 mph 17.3 mph N/A Snow Light Snow
1:09 PM 18.7 °F 5.1 °F 13.3 °F 79% 30.17 in 4.0 mi SW 13.8 mph 23.0 mph N/A Snow Light Snow
1:29 PM 18.3 °F 4.1 °F 13.5 °F 81% 30.17 in 2.5 mi SW 15.0 mph 21.9 mph N/A Snow Light Snow
1:51 PM 17.6 °F 2.7 °F 13.3 °F 83% 30.17 in 1.5 mi SW 16.1 mph 20.7 mph N/A Snow Light Snow
2:12 PM 17.6 °F 3.2 °F 13.1 °F 83% 30.17 in 2.0 mi SW 15.0 mph 21.9 mph N/A Snow Light Snow
2:32 PM 16.7 °F 2.6 °F 12.2 °F 82% 30.16 in 2.5 mi SW 13.8 mph 24.2 mph N/A Snow Light Snow
2:52 PM 16.7 °F 3.8 °F 12.4 °F 83% 30.16 in 2.0 mi SW 11.5 mph 18.4 mph N/A Snow Light Snow
3:12 PM 16.3 °F 2.7 °F 12.2 °F 84% 30.16 in 2.0 mi SW 12.7 mph 19.6 mph N/A Snow Light Snow
3:32 PM 15.8 °F 3.4 °F 12.2 °F 86% 30.16 in 0.8 mi SW 10.4 mph 18.4 mph N/A Snow Light Snow
3:52 PM 15.8 °F 2.7 °F 12.6 °F 87% 30.16 in 1.0 mi SW 11.5 mph 16.1 mph N/A Snow Light Snow
4:12 PM 15.8 °F 3.4 °F 12.9 °F 88% 30.17 in 1.5 mi SW 10.4 mph - N/A Snow Light Snow
4:32 PM 15.8 °F 5.1 °F 13.1 °F 89% 30.17 in 1.5 mi SW 8.1 mph - N/A Snow Light Snow
4:47 PM 15.8 °F 5.1 °F 13.1 °F 89% 30.16 in 1.8 mi SW 8.1 mph - N/A Snow Light Snow
5:10 PM 15.8 °F 7.2 °F 13.1 °F 89% 30.16 in 2.5 mi SW 5.8 mph - N/A Snow Light Snow
5:30 PM 14.9 °F 7.5 °F 12.9 °F 92% 30.16 in 5.0 mi SW 4.6 mph - N/A Snow Light Snow
5:50 PM 15.3 °F 7.9 °F 13.1 °F 91% 30.16 in 5.0 mi SW 4.6 mph - N/A Snow Light Snow
6:10 PM 15.8 °F 7.2 °F 13.6 °F 91% 30.16 in 5.0 mi SW 5.8 mph - N/A Snow Light Snow
6:30 PM 15.6 °F 5.9 °F 13.6 °F 92% 30.16 in 7.0 mi SW 6.9 mph - N/A Snow Light Snow
6:50 PM 15.6 °F 7.0 °F 13.6 °F 92% 30.16 in 5.0 mi SW 5.8 mph - N/A Snow Light Snow
7:10 PM 15.8 °F 7.2 °F 13.8 °F 92% 30.16 in 5.0 mi SW 5.8 mph - N/A Snow Light Snow
7:33 PM 16.3 °F 10.8 °F 14.0 °F 90% 30.16 in 4.0 mi SW 3.5 mph - N/A Snow Light Snow
7:53 PM 16.5 °F 9.4 °F 14.5 °F 92% 30.16 in 5.0 mi SW 4.6 mph - N/A Snow Light Snow
8:13 PM 16.9 °F 9.8 °F 14.9 °F 92% 30.16 in 5.0 mi SSW 4.6 mph - N/A Snow Light Snow
8:33 PM 17.6 °F 12.3 °F 15.4 °F 91% 30.15 in 5.0 mi SSW 3.5 mph - N/A Snow Light Snow
8:53 PM 17.6 °F 10.7 °F 15.6 °F 92% 30.15 in 7.0 mi SW 4.6 mph - N/A   Overcast
9:13 PM 18.3 °F 10.2 °F 16.3 °F 92% 30.14 in 10.0 mi SW 5.8 mph - N/A   Overcast
9:33 PM 18.9 °F 12.1 °F 16.7 °F 91% 30.14 in 10.0 mi SW 4.6 mph - N/A   Overcast
9:53 PM 19.4 °F 11.5 °F 17.4 °F 92% 30.13 in 7.0 mi SW 5.8 mph - N/A   Overcast
10:13 PM 20.1 °F 10.3 °F 18.0 °F 91% 30.13 in 10.0 mi WSW 8.1 mph - N/A   Overcast
10:33 PM 20.8 °F 12.1 °F 18.3 °F 90% 30.13 in 10.0 mi SW 6.9 mph - N/A   Overcast
10:51 PM 21.2 °F 10.9 °F 18.5 °F 89% 30.12 in 10.0 mi WSW 9.2 mph - N/A   Overcast
11:11 PM 21.7 °F 11.5 °F 18.7 °F 88% 30.11 in 10.0 mi WSW 9.2 mph - N/A   Overcast
11:31 PM 22.1 °F 12.0 °F 18.9 °F 87% 30.11 in 10.0 mi SW 9.2 mph 17.3 mph N/A   Overcast
11:51 PM 22.5 °F 13.2 °F 19.2 °F 87% 30.11 in 10.0 mi WSW 8.1 mph 18.4 mph N/A   Overcast